Weather in Novootradnoe

Russia / Republic of Crimea     45°23′16″N   36°03′34″E
temp.,
°C
wind,
m/s
gust,
m/s
humid.,
%
clouds,
%
prec.,
mm/h
press.,
hPa
HPBL,
m
2 march, tue
tue200:00+3n45800 0.0 1029426
03:00+4nnw44790 0.0 1030467
06:00+3n447855 0.1 1029478
09:00+3nnw447628 0.1 1030490
12:00+3wnw66710 0.0 1030790
15:00+3w57670 0.0 1028781
18:00+5w376532 0.0 1026385
21:00+5w11147262 0.0 1025896
3 march, wed
wed300:00+4wsw11147838 0.0 1023803
03:00+5w13168256 0.1 1022911
06:00+5nnw101176100 0.4 1021880
09:00+4nnw10127299 0.6 10231441
12:00+4nnw9107595 0.1 1024953
15:00+5nw797161 0.1 1025947
18:00+5wnw58750 0.0 1026494
21:00+5nnw56740 0.0 1028161
4 march, thu
thu400:00+5e11750 0.0 102830
03:00+4sw45750 0.0 1027160
06:00+4sw55780 0.0 1026245
09:00+4sw57700 0.0 1026299
12:00+6sw45700 0.0 1024173
15:00+7ssw79674 0.0 1023201
18:00+6ssw914740 0.0 1020449
21:00+6ssw914780 0.0 1020469
5 march, fri
fri500:00+5ssw1015800 0.0 1019548
03:00+5ssw1016790 0.0 1018467
06:00+5ssw1015820 0.0 1017407
09:00+6ssw1015791 0.0 1017419
12:00+8ssw1115720 0.0 1016363
15:00+9ssw11156613 0.0 1015279
18:00+8ssw1117747 0.0 1014349
21:00+8ssw11187453 0.0 1014398
6 march, sat
sat600:00+8ssw10167623 0.0 1014324
03:00+7sw568612 0.0 101489
06:00+6wsw348572 0.0 101430
09:00+5n679286 0.0 1016279
12:00+4nnw7893100 0.0 1017351
15:00+2n7994100 1.3 1018550
18:00+4n8965100 0.2 10191032
21:00+4n8956100 0.2 10221522